sat.trackr.live / text

‹ back to catalog

STARLINK-4130

NORAD 53263 · 2022-086X

PAYLOAD ACTIVE UNKNOWN

§ Identity

Operator
Country
US
Launch date
2022-07-24
Launch site
AFETR
Launch vehicle
Mass (kg)
RCS (m²)

Purposes: comms

External: N2YO · Heavens-Above · Gunter

§ Orbital elements

Epoch: 2026-05-25T04:08:45.497184Z

Period
95.44 min
Inclination
53.2122°
Eccentricity
0.0001093
Mean motion
15.08838779 rev/d
Perigee alt
539.0 km
Apogee alt
540.5 km
Semi-major
6,917.9 km
B*
2.7665e-5
RAAN
210.7788°
Arg perigee
80.9549°
Mean anomaly
279.1567°
Rev number
21,261

§ Raw data

STARLINK-41301 53263U 22086X   26145.17274881  .00000152  00000+0  27665-4 0  99902 53263  53.2122 210.7788 0001093  80.9549 279.1567 15.08838779212612

JSON: /api/v1/satellites/53263 · /tle

For live sub-satellite position, see the globe view (requires WebGL).

§ Visibility from observer

Set your observer location to see the next 7 days of passes ≥ 10°. The values pass through the URL so the page stays shareable.

No JS? Fill the form by hand. The geolocation button needs JavaScript.